EW6618 Weather Reports


Display with metric or nautical units.
time (UTC)temp
F
wind
direction
speed
MPH
gust
MPH
rain 1hr
in
rain 24hr
in
rain mn
in
humidity
%
barometer
mb
20260503221507 63 263 8.0 13.0 0.00 0.00 0.00 76 1014.2
20260503220433 64 289 8.0 13.0 0.00 0.00 0.00 72 1014.3
20260503215405 64 250 8.0 12.0 0.00 0.00 0.00 71 1014.4
20260503213316 65 249 7.0 12.0 0.00 0.00 0.00 69 1014.5
20260503212312 65 233 8.0 12.0 0.00 0.00 0.00 70 1014.6
20260503211321 65 243 8.0 11.0 0.00 0.00 0.00 68 1014.4
20260503210344 65 313 8.0 13.0 0.00 0.00 0.00 68 1014.5
20260503205403 65 261 8.0 13.0 0.00 0.00 0.00 68 1014.5
20260503204331 65 237 6.0 10.0 0.00 0.00 0.00 68 1014.7
20260503203319 66 240 6.0 10.0 0.00 0.00 0.00 67 1014.6
20260503202331 66 321 6.0 10.0 0.00 0.00 0.00 66 1014.6
20260503201340 66 236 6.0 10.0 0.00 0.00 0.00 67 1014.8
20260503200319 66 229 4.0 8.0 0.00 0.00 0.00 67 1014.7
20260503195304 66 225 4.0 8.0 0.00 0.00 0.00 65 1014.9
20260503194301 67 265 4.0 8.0 0.00 0.00 0.00 65 1014.9
20260503193233 67 187 5.0 8.0 0.00 0.00 0.00 67 1014.9
20260503192236 68 274 4.0 8.0 0.00 0.00 0.00 66 1014.9
20260503191202 67 359 5.0 7.0 0.00 0.00 0.00 67 1015.0
20260503190206 67 205 4.0 7.0 0.00 0.00 0.00 69 1015.1
20260503185143 67 246 4.0 6.0 0.00 0.00 0.00 70 1015.2
20260503184151 66 207 4.0 6.0 0.00 0.00 0.00 71 1015.2
20260503183210 66 352 3.0 6.0 0.00 0.00 0.00 73 1015.2
20260503181054 63 264 2.0 8.0 0.00 0.00 0.00 76 1015.0
20260503174925 62 295 3.0 6.0 0.00 0.00 0.00 77 1015.1
20260503173940 62 256 3.0 6.0 0.00 0.00 0.00 78 1015.2
20260503172934 61 242 3.0 6.0 0.00 0.00 0.00 79 1015.1
20260503171949 61 236 3.0 6.0 0.00 0.00 0.00 79 1015.1
20260503170946 62 284 3.0 6.0 0.00 0.00 0.00 79 1014.8
20260503150629 60 238 1.0 3.0 0.00 0.00 0.00 83 1014.4
20260503130445 59 257 2.0 6.0 0.00 0.00 0.00 85 1013.1
20260503110217 60 287 0.0 3.0 0.00 0.00 0.00 84 1013.2
20260503081632 60 205 1.0 6.0 0.00 0.00 0.00 84 1013.7
20260503080642 60 253 1.0 5.0 0.00 0.00 0.00 85 1013.8
20260503072633 60 221 1.0 5.0 0.00 0.00 0.00 86 1013.6
20260503071625 60 100 1.0 5.0 0.00 0.00 0.00 86 1013.4
20260503054326 59 300 2.0 7.0 0.00 0.00 0.00 89 1013.3
20260503053256 59 294 1.0 7.0 0.00 0.00 0.00 89 1013.4
20260503052320 59 281 3.0 8.0 0.00 0.00 0.00 89 1013.5
20260503050140 60 248 5.0 9.0 0.00 0.00 0.00 89 1013.5
20260503044005 60 252 4.0 7.0 0.00 0.00 0.00 90 1013.4
20260503042953 59 359 4.0 10.0 0.00 0.00 0.00 90 1013.2
20260503042010 60 269 5.0 10.0 0.00 0.00 0.00 89 1013.1
20260503041015 60 241 4.0 8.0 0.00 0.00 0.00 89 1012.7
20260503035954 59 323 3.0 8.0 0.00 0.00 0.00 89 1012.6
20260503034924 60 342 4.0 8.0 0.00 0.00 0.00 89 1012.5
20260503033855 59 278 4.0 9.0 0.00 0.00 0.00 89 1012.4
20260503032836 60 139 4.0 9.0 0.00 0.00 0.00 89 1012.2
20260503031803 60 245 4.0 9.0 0.00 0.00 0.00 89 1012.1
20260503030735 60 295 5.0 9.0 0.00 0.00 0.00 88 1011.9
20260503025701 60 280 4.0 11.0 0.00 0.00 0.00 88 1011.7
20260503024705 60 293 4.0 11.0 0.00 0.00 0.00 87 1011.5
20260503022543 61 211 4.0 9.0 0.00 0.00 0.00 85 1011.3
20260503021515 61 202 4.0 8.0 0.00 0.00 0.00 84 1011.1
20260503020530 62 244 5.0 9.0 0.00 0.00 0.00 84 1011.3
20260503015550 62 259 4.0 9.0 0.00 0.00 0.00 83 1011.2
20260503014536 63 279 6.0 9.0 0.00 0.00 0.00 81 1011.3
20260503013507 63 227 6.0 9.0 0.00 0.00 0.00 82 1011.3
20260503012530 63 200 6.0 9.0 0.00 0.00 0.00 80 1011.3
20260503011550 64 285 5.0 9.0 0.00 0.00 0.00 80 1011.2
20260503010602 64 236 5.0 8.0 0.00 0.00 0.00 80 1011.0
20260503004504 64 276 5.0 9.0 0.00 0.00 0.00 79 1011.1
20260503003452 65 257 4.0 8.0 0.00 0.00 0.00 78 1011.2
20260503002510 64 231 6.0 9.0 0.00 0.00 0.00 78 1011.1
20260503001533 64 219 7.0 11.0 0.00 0.00 0.00 78 1011.3
20260503000519 64 11 7.0 11.0 0.00 0.00 0.00 80 1011.4
20260502234417 63 231 6.0 11.0 0.00 0.00 0.00 81 1011.4
20260502232300 63 279 6.0 11.0 0.00 0.00 0.00 80 1011.6
20260502231304 63 281 6.0 10.0 0.00 0.00 0.00 80 1011.7
20260502225143 64 249 6.0 10.0 0.00 0.00 0.00 80 1011.9
20260502224117 64 212 8.0 13.0 0.00 0.00 0.00 78 1012.3
20260502223105 64 265 8.0 13.0 0.00 0.00 0.00 79 1012.5